Location: Little Arabia
(41.4620°N, 81.7687°W)
Time: 20:45:09
(UTC+00:00)

Cosmos 1745 Rocket - Pass Details

Date: 29 October 2020
Orbit: 953 x 997 km, 83.0° (Epoch: 02 December)

Event Time Altitude Azimuth Distance (km) Brightness Sun altitude
Rises 23:22:24 0° 357° (N) 3,696 7.0 -11.3°
Reaches altitude 10° 23:25:02 10° 3° (N) 2,751 6.2 -11.8°
Maximum altitude 23:31:08 49° 78° (ENE) 1,264 4.2 -12.9°
Drops below altitude 10° 23:37:13 10° 152° (SSE) 2,754 6.1 -14.0°
Sets 23:39:50 0° 158° (SSE) 3,701 6.9 -14.5°
